Time,TemperatureF,DewpointF,PressureIn,WindDirection,WindDirectionDegrees,WindSpeedMPH,WindSpeedGustMPH,Humidity,HourlyPrecipIn,Conditions,Clouds,dailyrainin,SoftwareType,DateUTC
2013-02-07 00:10:00,12.7,8.0,30.41,East,83,2.0,5.0,82,0.00,,,0.00,weatherlink.com 1.10,2013-02-07 05:10:00,
2013-02-07 00:25:00,13.4,9.0,30.40,East,83,0.0,2.0,81,0.00,,,0.00,weatherlink.com 1.10,2013-02-07 05:25:00,
2013-02-07 00:40:00,13.6,9.0,30.40,East,83,0.0,0.0,81,0.00,,,0.00,weatherlink.com 1.10,2013-02-07 05:40:00,
2013-02-07 00:55:00,14.0,9.0,30.39,East,83,0.0,0.0,80,0.00,,,0.00,weatherlink.com 1.10,2013-02-07 05:55:00,
2013-02-07 01:10:00,13.7,9.0,30.39,East,83,0.0,0.0,80,0.00,,,0.00,weatherlink.com 1.10,2013-02-07 06:10:00,
2013-02-07 01:25:00,14.5,9.0,30.41,East,83,0.0,0.0,80,0.00,,,0.00,weatherlink.com 1.10,2013-02-07 06:25:00,
2013-02-07 01:41:00,14.4,9.0,30.41,East,83,3.0,5.0,79,0.00,,,0.00,weatherlink.com 1.10,2013-02-07 06:41:00,
2013-02-07 01:56:00,15.3,10.0,30.42,East,83,0.0,2.0,78,0.00,,,0.00,weatherlink.com 1.10,2013-02-07 06:56:00,
2013-02-07 02:11:00,15.2,10.0,30.43,East,83,0.0,0.0,78,0.00,,,0.00,weatherlink.com 1.10,2013-02-07 07:11:00,
2013-02-07 02:26:00,15.0,10.0,30.43,East,84,2.0,3.0,80,0.00,,,0.00,weatherlink.com 1.10,2013-02-07 07:26:00,
2013-02-07 02:41:00,15.6,10.0,30.43,East,85,0.0,3.0,77,0.00,,,0.00,weatherlink.com 1.10,2013-02-07 07:41:00,
2013-02-07 02:56:00,15.3,10.0,30.42,East,85,3.0,5.0,78,0.00,,,0.00,weatherlink.com 1.10,2013-02-07 07:56:00,
2013-02-07 03:11:00,15.2,9.0,30.41,East,85,2.0,3.0,77,0.00,,,0.00,weatherlink.com 1.10,2013-02-07 08:11:00,
2013-02-07 03:26:00,14.8,9.0,30.42,East,85,0.0,1.0,78,0.00,,,0.00,weatherlink.com 1.10,2013-02-07 08:26:00,
2013-02-07 03:41:00,14.4,10.0,30.41,East,84,2.0,5.0,81,0.00,,,0.00,weatherlink.com 1.10,2013-02-07 08:41:00,
2013-02-07 03:56:00,15.0,10.0,30.42,East,84,0.0,3.0,79,0.00,,,0.00,weatherlink.com 1.10,2013-02-07 08:56:00,
2013-02-07 04:11:00,15.5,10.0,30.42,East,84,0.0,0.0,77,0.00,,,0.00,weatherlink.com 1.10,2013-02-07 09:11:00,
2013-02-07 04:26:00,15.8,11.0,30.43,East,91,0.0,5.0,80,0.00,,,0.00,weatherlink.com 1.10,2013-02-07 09:26:00,
2013-02-07 04:41:00,15.8,11.0,30.43,East,101,3.0,5.0,81,0.00,,,0.00,weatherlink.com 1.10,2013-02-07 09:41:00,
2013-02-07 04:56:00,15.9,11.0,30.44,ESE,113,0.0,3.0,81,0.00,,,0.00,weatherlink.com 1.10,2013-02-07 09:56:00,
2013-02-07 05:11:00,15.7,11.0,30.45,ESE,116,0.0,0.0,80,0.00,,,0.00,weatherlink.com 1.10,2013-02-07 10:11:00,
2013-02-07 05:26:00,15.7,11.0,30.45,ESE,116,0.0,0.0,80,0.00,,,0.00,weatherlink.com 1.10,2013-02-07 10:26:00,
2013-02-07 05:41:00,15.8,10.0,30.45,ESE,116,0.0,0.0,78,0.00,,,0.00,weatherlink.com 1.10,2013-02-07 10:41:00,
2013-02-07 05:56:00,16.0,10.0,30.46,ESE,116,0.0,0.0,78,0.00,,,0.00,weatherlink.com 1.10,2013-02-07 10:56:00,
2013-02-07 06:11:00,16.2,10.0,30.46,ESE,119,0.0,1.0,77,0.00,,,0.00,weatherlink.com 1.10,2013-02-07 11:11:00,
2013-02-07 06:26:00,16.3,10.0,30.46,ESE,119,0.0,0.0,75,0.00,,,0.00,weatherlink.com 1.10,2013-02-07 11:26:00,
2013-02-07 06:41:00,16.2,10.0,30.45,SE,141,4.0,5.0,76,0.00,,,0.00,weatherlink.com 1.10,2013-02-07 11:41:00,
2013-02-07 06:56:00,16.1,10.0,30.46,SE,137,1.0,4.0,76,0.00,,,0.00,weatherlink.com 1.10,2013-02-07 11:56:00,
2013-02-07 07:11:00,15.9,10.0,30.46,ESE,115,2.0,3.0,77,0.00,,,0.00,weatherlink.com 1.10,2013-02-07 12:11:00,
2013-02-07 07:26:00,15.8,10.0,30.46,SE,136,3.0,5.0,76,0.00,,,0.00,weatherlink.com 1.10,2013-02-07 12:26:00,
2013-02-07 07:41:00,16.2,10.0,30.47,SSE,161,3.0,6.0,76,0.00,,,0.00,weatherlink.com 1.10,2013-02-07 12:41:00,
2013-02-07 07:56:00,16.5,10.0,30.48,South,179,4.0,9.0,74,0.00,,,0.00,weatherlink.com 1.10,2013-02-07 12:56:00,
2013-02-07 08:11:00,16.9,10.0,30.48,SSE,149,3.0,7.0,74,0.00,,,0.00,weatherlink.com 1.10,2013-02-07 13:11:00,
2013-02-07 08:26:00,17.8,9.0,30.49,SSE,150,7.0,10.0,69,0.00,,,0.00,weatherlink.com 1.10,2013-02-07 13:26:00,
2013-02-07 08:41:00,18.2,9.0,30.49,SE,145,3.0,11.0,66,0.00,,,0.00,weatherlink.com 1.10,2013-02-07 13:41:00,
2013-02-07 08:56:00,18.4,8.0,30.49,SSE,152,5.0,10.0,65,0.00,,,0.00,weatherlink.com 1.10,2013-02-07 13:56:00,
2013-02-07 09:11:00,18.8,9.0,30.50,SSE,166,4.0,11.0,66,0.00,,,0.00,weatherlink.com 1.10,2013-02-07 14:11:00,
2013-02-07 09:26:00,19.4,9.0,30.49,SE,127,6.0,10.0,65,0.00,,,0.00,weatherlink.com 1.10,2013-02-07 14:26:00,
2013-02-07 09:41:00,19.8,9.0,30.49,SE,128,7.0,10.0,64,0.00,,,0.00,weatherlink.com 1.10,2013-02-07 14:41:00,
2013-02-07 09:56:00,20.4,9.0,30.49,SE,134,6.0,10.0,62,0.00,,,0.00,weatherlink.com 1.10,2013-02-07 14:56:00,
2013-02-07 10:11:00,21.2,9.0,30.48,SE,145,6.0,10.0,60,0.00,,,0.00,weatherlink.com 1.10,2013-02-07 15:11:00,
2013-02-07 10:26:00,21.7,9.0,30.48,ESE,103,4.0,12.0,58,0.00,,,0.00,weatherlink.com 1.10,2013-02-07 15:26:00,
2013-02-07 10:41:00,21.8,9.0,30.47,SSE,156,4.0,11.0,59,0.00,,,0.00,weatherlink.com 1.10,2013-02-07 15:41:00,
2013-02-07 10:56:00,22.5,10.0,30.48,SE,136,8.0,10.0,58,0.00,,,0.00,weatherlink.com 1.10,2013-02-07 15:56:00,
2013-02-07 11:11:00,22.9,10.0,30.47,ESE,119,5.0,14.0,58,0.00,,,0.00,weatherlink.com 1.10,2013-02-07 16:11:00,
2013-02-07 11:26:00,23.6,11.0,30.46,ESE,116,5.0,13.0,58,0.00,,,0.00,weatherlink.com 1.10,2013-02-07 16:26:00,
2013-02-07 11:41:00,23.9,11.0,30.45,SE,129,8.0,15.0,58,0.00,,,0.00,weatherlink.com 1.10,2013-02-07 16:41:00,
2013-02-07 11:57:00,24.3,12.0,30.44,East,89,7.0,9.0,59,0.00,,,0.00,weatherlink.com 1.10,2013-02-07 16:57:00,
2013-02-07 12:12:00,24.6,12.0,30.42,ESE,109,9.0,11.0,60,0.00,,,0.00,weatherlink.com 1.10,2013-02-07 17:12:00,
2013-02-07 12:27:00,25.0,12.0,30.41,ESE,120,4.0,13.0,59,0.00,,,0.00,weatherlink.com 1.10,2013-02-07 17:27:00,
2013-02-07 12:42:00,25.3,13.0,30.40,ESE,108,10.0,16.0,59,0.00,,,0.00,weatherlink.com 1.10,2013-02-07 17:42:00,
2013-02-07 12:57:00,26.1,13.0,30.39,SE,135,5.0,11.0,59,0.00,,,0.00,weatherlink.com 1.10,2013-02-07 17:57:00,
2013-02-07 13:12:00,26.5,13.0,30.39,ESE,108,5.0,12.0,57,0.00,,,0.00,weatherlink.com 1.10,2013-02-07 18:12:00,
2013-02-07 13:27:00,26.6,13.0,30.38,SSE,152,3.0,15.0,57,0.00,,,0.00,weatherlink.com 1.10,2013-02-07 18:27:00,
2013-02-07 13:42:00,27.1,13.0,30.37,ESE,114,10.0,12.0,56,0.00,,,0.00,weatherlink.com 1.10,2013-02-07 18:42:00,
2013-02-07 13:57:00,27.6,13.0,30.36,SSE,149,7.0,13.0,55,0.00,,,0.00,weatherlink.com 1.10,2013-02-07 18:57:00,
2013-02-07 14:12:00,28.5,14.0,30.36,SE,139,6.0,11.0,56,0.00,,,0.00,weatherlink.com 1.10,2013-02-07 19:12:00,
2013-02-07 14:27:00,28.5,14.0,30.35,SE,146,9.0,13.0,54,0.00,,,0.00,weatherlink.com 1.10,2013-02-07 19:27:00,
2013-02-07 14:42:00,28.4,14.0,30.34,SE,126,13.0,17.0,54,0.00,,,0.00,weatherlink.com 1.10,2013-02-07 19:42:00,
2013-02-07 14:57:00,28.7,14.0,30.33,SE,133,7.0,13.0,55,0.00,,,0.00,weatherlink.com 1.10,2013-02-07 19:57:00,
2013-02-07 15:12:00,29.2,15.0,30.33,SSE,151,6.0,10.0,56,0.00,,,0.00,weatherlink.com 1.10,2013-02-07 20:12:00,
2013-02-07 15:27:00,29.5,15.0,30.32,SSE,152,7.0,14.0,54,0.00,,,0.00,weatherlink.com 1.10,2013-02-07 20:27:00,
2013-02-07 15:42:00,29.9,15.0,30.32,East,101,8.0,13.0,54,0.00,,,0.00,weatherlink.com 1.10,2013-02-07 20:42:00,
2013-02-07 15:57:00,30.0,15.0,30.31,SE,143,9.0,12.0,54,0.00,,,0.00,weatherlink.com 1.10,2013-02-07 20:57:00,
2013-02-07 16:12:00,30.2,16.0,30.31,SE,137,8.0,10.0,55,0.00,,,0.00,weatherlink.com 1.10,2013-02-07 21:12:00,
2013-02-07 16:27:00,30.2,16.0,30.31,SSE,147,4.0,8.0,55,0.00,,,0.00,weatherlink.com 1.10,2013-02-07 21:27:00,
2013-02-07 16:42:00,30.0,15.0,30.31,ESE,112,5.0,8.0,55,0.00,,,0.00,weatherlink.com 1.10,2013-02-07 21:42:00,
2013-02-07 16:57:00,30.0,16.0,30.30,East,97,6.0,9.0,56,0.00,,,0.00,weatherlink.com 1.10,2013-02-07 21:57:00,
2013-02-07 17:12:00,30.0,16.0,30.30,East,85,6.0,8.0,56,0.00,,,0.00,weatherlink.com 1.10,2013-02-07 22:12:00,
2013-02-07 17:27:00,29.9,16.0,30.30,East,94,5.0,8.0,57,0.00,,,0.00,weatherlink.com 1.10,2013-02-07 22:27:00,
2013-02-07 17:42:00,29.9,17.0,30.30,ESE,108,4.0,8.0,58,0.00,,,0.00,weatherlink.com 1.10,2013-02-07 22:42:00,
2013-02-07 17:57:00,29.7,16.0,30.30,East,89,5.0,7.0,58,0.00,,,0.00,weatherlink.com 1.10,2013-02-07 22:57:00,
2013-02-07 18:12:00,29.6,16.0,30.30,ENE,77,5.0,8.0,57,0.00,,,0.00,weatherlink.com 1.10,2013-02-07 23:12:00,
2013-02-07 18:27:00,29.8,17.0,30.29,SE,128,5.0,8.0,58,0.00,,,0.00,weatherlink.com 1.10,2013-02-07 23:27:00,
2013-02-07 18:42:00,29.8,17.0,30.29,East,101,4.0,10.0,58,0.00,,,0.00,weatherlink.com 1.10,2013-02-07 23:42:00,
2013-02-07 18:57:00,29.9,17.0,30.29,East,95,6.0,9.0,58,0.00,,,0.00,weatherlink.com 1.10,2013-02-07 23:57:00,
2013-02-07 19:12:00,30.1,17.0,30.29,ESE,110,4.0,8.0,59,0.00,,,0.00,weatherlink.com 1.10,2013-02-08 00:12:00,
2013-02-07 19:27:00,30.1,17.0,30.28,SE,124,4.0,9.0,59,0.00,,,0.00,weatherlink.com 1.10,2013-02-08 00:27:00,
2013-02-07 19:42:00,30.3,18.0,30.28,ESE,114,3.0,8.0,60,0.00,,,0.00,weatherlink.com 1.10,2013-02-08 00:42:00,
2013-02-07 19:57:00,30.3,18.0,30.28,SE,137,5.0,7.0,61,0.00,,,0.00,weatherlink.com 1.10,2013-02-08 00:57:00,
2013-02-07 20:12:00,30.3,19.0,30.27,SE,130,4.0,7.0,62,0.00,,,0.00,weatherlink.com 1.10,2013-02-08 01:12:00,
2013-02-07 20:28:00,31.0,18.0,30.26,South,173,4.0,13.0,59,0.00,,,0.00,weatherlink.com 1.10,2013-02-08 01:28:00,
2013-02-07 20:43:00,30.9,18.0,30.26,SE,138,7.0,10.0,59,0.00,,,0.00,weatherlink.com 1.10,2013-02-08 01:43:00,
2013-02-07 20:58:00,31.0,18.0,30.26,SSE,152,3.0,11.0,59,0.00,,,0.00,weatherlink.com 1.10,2013-02-08 01:58:00,
2013-02-07 21:13:00,31.0,18.0,30.25,SSE,156,4.0,19.0,59,0.00,,,0.00,weatherlink.com 1.10,2013-02-08 02:13:00,
2013-02-07 21:28:00,31.0,18.0,30.25,SSE,168,4.0,17.0,59,0.00,,,0.00,weatherlink.com 1.10,2013-02-08 02:28:00,
2013-02-07 21:43:00,30.8,19.0,30.25,SSW,201,7.0,20.0,61,0.00,,,0.00,weatherlink.com 1.10,2013-02-08 02:43:00,
2013-02-07 21:58:00,30.5,19.0,30.23,South,184,10.0,14.0,62,0.00,,,0.00,weatherlink.com 1.10,2013-02-08 02:58:00,
2013-02-07 22:13:00,30.5,18.0,30.23,SE,143,5.0,15.0,61,0.00,,,0.00,weatherlink.com 1.10,2013-02-08 03:13:00,
2013-02-07 22:28:00,30.4,18.0,30.22,SSE,161,3.0,17.0,61,0.00,,,0.00,weatherlink.com 1.10,2013-02-08 03:28:00,
2013-02-07 22:43:00,30.3,18.0,30.21,SSE,150,4.0,16.0,60,0.00,,,0.00,weatherlink.com 1.10,2013-02-08 03:43:00,
2013-02-07 22:58:00,29.8,18.0,30.20,SE,136,6.0,14.0,61,0.00,,,0.00,weatherlink.com 1.10,2013-02-08 03:58:00,
2013-02-07 23:13:00,29.5,17.0,30.20,SE,132,7.0,17.0,60,0.00,,,0.00,weatherlink.com 1.10,2013-02-08 04:13:00,
2013-02-07 23:28:00,29.3,17.0,30.18,SSE,150,8.0,13.0,60,0.00,,,0.00,weatherlink.com 1.10,2013-02-08 04:28:00,
2013-02-07 23:43:00,29.2,16.0,30.18,SSE,147,9.0,20.0,59,0.00,,,0.00,weatherlink.com 1.10,2013-02-08 04:43:00,
2013-02-07 23:58:00,29.2,17.0,30.17,SE,135,9.0,15.0,60,0.00,,,0.00,weatherlink.com 1.10,2013-02-08 04:58:00,